FW5131 Weather Reports


Display with metric or nautical units.
time (UTC)temp
F
wind
direction
speed
MPH
gust
MPH
rain 1hr
in
rain 24hr
in
rain mn
in
humidity
%
barometer
mb
20200328181013 54 135 3.0 6.0 0.00 0.00 0.00 65 1022.1
20200328180511 54 167 2.0 5.0 0.00 0.00 0.00 65 1022.1
20200328180011 53 159 0.0 5.0 0.00 0.00 0.00 68 1022.1
20200328175514 52 197 1.0 5.0 0.00 0.00 0.00 69 1022.0
20200328175012 52 156 1.0 5.0 0.00 0.00 0.00 69 1022.2
20200328174009 51 213 2.0 7.0 0.00 0.00 0.00 70 1022.4
20200328173505 51 194 4.0 7.0 0.00 0.00 0.00 70 1022.2
20200328173013 50 152 3.0 6.0 0.00 0.00 0.00 71 1022.4
20200328172511 50 219 3.0 6.0 0.00 0.00 0.00 70 1022.4
20200328172003 50 173 4.0 6.0 0.00 0.00 0.00 71 1022.5
20200328171503 50 198 1.0 7.0 0.00 0.00 0.00 71 1022.6
20200328171006 50 214 4.0 7.0 0.00 0.00 0.00 70 1022.5
20200328170502 50 305 1.0 5.0 0.00 0.00 0.00 70 1022.5
20200328170004 50 205 1.0 3.0 0.00 0.00 0.00 71 1022.3
20200328165502 49 189 1.0 6.0 0.00 0.00 0.00 72 1022.2
20200328165003 49 189 1.0 6.0 0.00 0.00 0.00 73 1022.2
20200328164008 48 183 1.0 3.0 0.00 0.00 0.00 73 1022.4
20200328163601 48 183 0.0 4.0 0.00 0.00 0.00 74 1022.3
20200328163238 48 184 1.0 5.0 0.00 0.00 0.00 74 1022.2
20200328162559 47 180 1.0 4.0 0.00 0.00 0.00 75 1022.3
20200328162100 47 177 1.0 3.0 0.00 0.00 0.00 75 1022.2
20200328161710 47 177 1.0 4.0 0.00 0.00 0.00 75 1022.3
20200328161100 47 197 1.0 4.0 0.00 0.00 0.00 76 1022.1
20200328160600 46 196 0.0 4.0 0.00 0.00 0.00 75 1022.3
20200328155600 46 198 1.0 5.0 0.00 0.00 0.00 76 1022.2
20200328155059 45 198 1.0 5.0 0.00 0.00 0.00 76 1022.2
20200328154634 45 148 1.0 6.0 0.00 0.00 0.00 76 1022.2
20200328154113 45 155 1.0 6.0 0.00 0.00 0.00 76 1022.1
20200328153230 45 180 2.0 6.0 0.00 0.00 0.00 77 1022.2
20200328152600 45 179 3.0 6.0 0.00 0.00 0.00 76 1022.1
20200328152059 45 160 2.0 5.0 0.00 0.00 0.00 76 1022.3
20200328151622 45 194 1.0 5.0 0.00 0.00 0.00 77 1022.2
20200328151059 45 148 2.0 5.0 0.00 0.00 0.00 77 1022.0
20200328150559 45 129 1.0 4.0 0.00 0.00 0.00 78 1021.9
20200328150306 45 129 1.0 3.0 0.00 0.00 0.00 79 1021.9
20200328145600 44 109 1.0 3.0 0.00 0.00 0.00 79 1021.8
20200328145101 44 134 1.0 5.0 0.00 0.00 0.00 79 1021.7
20200328144057 44 118 1.0 4.0 0.00 0.00 0.00 80 1021.6
20200328143601 44 172 1.0 4.0 0.00 0.00 0.00 81 1021.6
20200328143206 44 172 0.0 2.0 0.00 0.00 0.00 81 1021.7
20200328142556 43 178 0.0 2.0 0.00 0.00 0.00 82 1021.7
20200328142056 43 178 0.0 4.0 0.00 0.00 0.00 82 1021.6
20200328141558 43 178 1.0 4.0 0.00 0.00 0.00 82 1021.5
20200328141056 43 246 1.0 2.0 0.00 0.00 0.00 82 1021.5
20200328140557 43 246 0.0 2.0 0.00 0.00 0.00 82 1021.5
20200328140137 43 246 1.0 2.0 0.00 0.00 0.00 82 1021.4
20200328135606 43 246 1.0 2.0 0.00 0.00 0.00 82 1021.4
20200328135102 43 246 1.0 2.0 0.00 0.00 0.00 82 1021.4
20200328134617 43 246 0.0 1.0 0.00 0.00 0.00 81 1021.4
20200328134052 43 246 0.0 2.0 0.00 0.00 0.00 81 1021.4
20200328133554 43 246 0.0 2.0 0.00 0.00 0.00 81 1021.3
20200328133113 43 246 1.0 4.0 0.00 0.00 0.00 81 1021.2
20200328132551 43 246 2.0 5.0 0.00 0.00 0.00 81 1021.2
20200328132050 43 243 1.0 5.0 0.00 0.00 0.00 81 1021.1
20200328131611 43 247 3.0 6.0 0.00 0.00 0.00 82 1021.1
20200328131050 43 250 3.0 6.0 0.00 0.00 0.00 81 1021.0
20200328130549 44 271 3.0 6.0 0.00 0.00 0.00 79 1020.9
20200328130106 44 246 3.0 6.0 0.00 0.00 0.00 79 1020.7
20200328125547 44 251 4.0 5.0 0.00 0.00 0.00 78 1020.8
20200328125048 44 225 3.0 5.0 0.00 0.00 0.00 78 1020.7
20200328124051 44 213 3.0 5.0 0.00 0.00 0.00 77 1020.7
20200328123555 44 210 1.0 2.0 0.00 0.00 0.00 77 1020.7
20200328123227 43 174 0.0 2.0 0.00 0.00 0.00 77 1020.6
20200328122550 43 71 0.0 0.0 0.00 0.00 0.00 77 1020.6
20200328122057 43 71 0.0 0.0 0.00 0.00 0.00 78 1020.5
20200328122020 43 71 0.0 0.0 0.00 0.00 0.00 78 1020.5
20200328121749 43 71 0.0 0.0 0.00 0.00 0.00 78 1020.5
20200328121049 43 71 0.0 2.0 0.00 0.00 0.00 78 1020.5
20200328120549 43 71 0.0 2.0 0.00 0.00 0.00 78 1020.5
20200328120213 43 71 0.0 2.0 0.00 0.00 0.00 78 1020.5
20200328115549 43 71 0.0 2.0 0.00 0.00 0.00 78 1020.5
20200328115048 43 71 1.0 2.0 0.00 0.00 0.00 78 1020.5
20200328114646 43 71 1.0 4.0 0.00 0.00 0.00 78 1020.4
20200328114046 43 71 1.0 4.0 0.00 0.00 0.00 78 1020.5
20200328113601 43 72 1.0 4.0 0.00 0.00 0.00 79 1020.6
20200328113148 43 72 1.0 2.0 0.00 0.00 0.00 80 1020.7
20200328112613 43 72 1.0 4.0 0.00 0.00 0.00 80 1020.5
20200328112057 43 72 0.0 5.0 0.00 0.00 0.00 81 1020.5
20200328111621 43 74 2.0 5.0 0.00 0.00 0.00 81 1020.3
20200328111045 43 76 2.0 5.0 0.00 0.00 0.00 80 1020.4
20200328110543 43 67 3.0 5.0 0.00 0.00 0.00 79 1020.5
20200328110054 43 70 2.0 4.0 0.00 0.00 0.00 79 1020.4
20200328105542 44 70 0.0 4.0 0.00 0.00 0.00 78 1020.5
20200328105041 44 70 1.0 5.0 0.00 0.00 0.00 78 1020.4
20200328104558 44 80 2.0 5.0 0.00 0.00 0.00 77 1020.4
20200328104048 44 80 2.0 5.0 0.00 0.00 0.00 77 1020.4
20200328103543 44 82 2.0 5.0 0.00 0.00 0.00 77 1020.5
20200328103126 44 17 0.0 5.0 0.00 0.00 0.00 77 1020.6
20200328102537 44 319 1.0 5.0 0.00 0.00 0.00 77 1020.6
20200328102048 44 287 1.0 4.0 0.00 0.00 0.00 78 1020.6
20200328101642 44 286 2.0 4.0 0.00 0.00 0.00 77 1020.6
20200328101035 45 221 0.0 4.0 0.00 0.00 0.00 76 1020.5
20200328100535 45 221 2.0 4.0 0.00 0.00 0.00 76 1020.5
20200328100115 45 221 0.0 1.0 0.00 0.00 0.00 76 1020.5
20200328095535 45 221 0.0 1.0 0.00 0.00 0.00 76 1020.6
20200328095034 45 221 0.0 2.0 0.00 0.00 0.00 75 1020.6
20200328094544 45 221 0.0 2.0 0.00 0.00 0.00 75 1020.6
20200328094040 45 222 0.0 2.0 0.00 0.00 0.00 75 1020.7
20200328093537 45 221 1.0 2.0 0.00 0.00 0.00 76 1020.7
20200328093201 46 219 0.0 2.0 0.00 0.00 0.00 75 1020.6
20200328092529 46 219 1.0 2.0 0.00 0.00 0.00 75 1020.6
20200328092034 46 219 0.0 2.0 0.00 0.00 0.00 75 1020.5
20200328091609 46 219 0.0 2.0 0.00 0.00 0.00 75 1020.6
20200328091028 46 219 0.0 2.0 0.00 0.00 0.00 75 1020.6
20200328090532 46 219 0.0 2.0 0.00 0.00 0.00 75 1020.7
20200328090055 47 219 0.0 2.0 0.00 0.00 0.00 74 1020.7
20200328085526 47 219 1.0 2.0 0.00 0.00 0.00 74 1020.6
20200328085034 47 219 0.0 1.0 0.00 0.00 0.00 73 1020.7
20200328084526 47 219 0.0 1.0 0.00 0.00 0.00 72 1020.7
20200328084024 47 219 0.0 1.0 0.00 0.00 0.00 72 1020.7
20200328083523 47 219 0.0 1.0 0.00 0.00 0.00 73 1020.7
20200328083032 47 219 0.0 1.0 0.00 0.00 0.00 72 1020.7
20200328082525 47 219 0.0 1.0 0.00 0.00 0.00 71 1020.7
20200328082020 48 219 0.0 1.0 0.00 0.00 0.00 70 1020.6
20200328081605 48 219 0.0 2.0 0.00 0.00 0.00 70 1020.6
20200328081026 48 219 0.0 2.0 0.00 0.00 0.00 69 1020.7
20200328080532 48 219 0.0 1.0 0.00 0.00 0.00 69 1020.6
20200328080058 48 219 0.0 2.0 0.00 0.00 0.00 68 1020.6
20200328075533 48 219 0.0 2.0 0.00 0.00 0.00 68 1020.7
20200328075024 48 219 0.0 2.0 0.00 0.00 0.00 68 1020.7
20200328074032 48 219 0.0 4.0 0.00 0.00 0.00 68 1020.7
20200328073533 48 219 0.0 2.0 0.00 0.00 0.00 69 1020.7
20200328073030 48 219 0.0 2.0 0.00 0.00 0.00 68 1020.8
20200328072527 49 219 0.0 2.0 0.00 0.00 0.00 68 1020.8
20200328072017 49 219 0.0 1.0 0.00 0.00 0.00 67 1020.8
20200328071532 49 219 0.0 1.0 0.00 0.00 0.00 67 1020.9
20200328071025 49 219 0.0 1.0 0.00 0.00 0.00 66 1020.8
20200328070518 49 219 0.0 4.0 0.00 0.00 0.00 66 1020.8
20200328070042 50 219 1.0 4.0 0.00 0.00 0.00 67 1020.8
20200328065517 50 219 2.0 5.0 0.00 0.00 0.00 67 1020.9
20200328065039 49 219 2.0 5.0 0.00 0.00 0.00 67 1020.8
20200328064016 49 197 0.0 5.0 0.00 0.00 0.00 66 1020.9
20200328063513 49 73 0.0 2.0 0.00 0.00 0.00 66 1020.9
20200328063019 49 73 0.0 2.0 0.00 0.00 0.00 65 1020.9
20200328062517 50 73 1.0 2.0 0.00 0.00 0.00 64 1020.8
20200328062014 50 73 1.0 2.0 0.00 0.00 0.00 64 1020.8
20200328061523 50 73 0.0 2.0 0.00 0.00 0.00 64 1020.8
20200328061015 51 73 0.0 2.0 0.00 0.00 0.00 64 1020.8
20200328060510 51 73 1.0 5.0 0.00 0.00 0.00 62 1020.7
20200328060024 51 73 2.0 5.0 0.00 0.00 0.00 62 1020.6
20200328055514 51 73 1.0 4.0 0.00 0.00 0.00 61 1020.6
20200328055009 51 73 1.0 4.0 0.00 0.00 0.00 61 1020.6
20200328054008 51 75 1.0 3.0 0.00 0.00 0.00 61 1020.6
20200328053512 52 76 1.0 2.0 0.00 0.00 0.00 60 1020.6
20200328053018 52 76 0.0 2.0 0.00 0.00 0.00 60 1020.6
20200328052511 52 76 1.0 2.0 0.00 0.00 0.00 60 1020.5
20200328052007 52 76 0.0 2.0 0.00 0.00 0.00 59 1020.5
20200328051516 52 76 0.0 2.0 0.00 0.00 0.00 58 1020.5
20200328051012 52 76 0.0 2.0 0.00 0.00 0.00 58 1020.5
20200328050512 53 76 0.0 2.0 0.00 0.00 0.00 57 1020.5
20200328050009 53 76 1.0 2.0 0.00 0.00 0.00 56 1020.4
20200328045506 53 76 1.0 2.0 0.00 0.00 0.00 56 1020.4
20200328045006 53 76 0.0 2.0 0.00 0.00 0.00 55 1020.5
20200328044029 54 76 0.0 1.0 0.00 0.00 0.00 54 1020.3
20200328043506 54 76 0.0 2.0 0.00 0.00 0.00 53 1020.2
20200328043029 54 76 0.0 2.0 0.00 0.00 0.00 53 1020.1
20200328042521 54 76 0.0 4.0 0.00 0.00 0.00 52 1020.0
20200328042027 55 76 1.0 4.0 0.00 0.00 0.00 52 1020.1
20200328041512 55 76 2.0 4.0 0.00 0.00 0.00 52 1020.1
20200328041006 55 76 1.0 5.0 0.00 0.00 0.00 52 1020.1
20200328040510 55 83 2.0 5.0 0.00 0.00 0.00 51 1019.9
20200328040037 55 78 2.0 5.0 0.00 0.00 0.00 51 1020.0
20200328035510 55 56 1.0 3.0 0.00 0.00 0.00 50 1020.0
20200328035018 56 56 1.0 4.0 0.00 0.00 0.00 50 1019.8
20200328034009 56 62 2.0 5.0 0.00 0.00 0.00 48 1019.7
20200328033513 56 59 3.0 6.0 0.00 0.00 0.00 48 1019.5
20200328033040 56 53 3.0 7.0 0.00 0.00 0.00 47 1019.6
20200328032508 57 57 4.0 7.0 0.00 0.00 0.00 47 1019.5
20200328032008 57 46 3.0 7.0 0.00 0.00 0.00 46 1019.5
20200328031516 57 45 1.0 6.0 0.00 0.00 0.00 45 1019.4
20200328031008 57 29 3.0 6.0 0.00 0.00 0.00 45 1019.4
20200328030514 57 29 1.0 7.0 0.00 0.00 0.00 44 1019.4
20200328030029 57 42 4.0 7.0 0.00 0.00 0.00 43 1019.2
20200328025508 58 61 2.0 7.0 0.00 0.00 0.00 43 1019.2
20200328025029 58 42 3.0 10.0 0.00 0.00 0.00 42 1019.1
20200328024006 59 35 1.0 7.0 0.00 0.00 0.00 42 1019.0
20200328023512 59 330 3.0 7.0 0.00 0.00 0.00 41 1018.9
20200328023007 59 348 1.0 7.0 0.00 0.00 0.00 41 1018.8
20200328022505 59 329 3.0 7.0 0.00 0.00 0.00 40 1018.6
20200328022004 59 329 3.0 8.0 0.00 0.00 0.00 40 1018.6
20200328021506 59 320 4.0 9.0 0.00 0.00 0.00 39 1018.7
20200328021003 59 347 6.0 9.0 0.00 0.00 0.00 38 1018.7
20200328020505 60 342 3.0 10.0 0.00 0.00 0.00 38 1018.7
20200328020004 60 329 7.0 10.0 0.00 0.00 0.00 37 1018.8
20200328015511 60 328 6.0 10.0 0.00 0.00 0.00 37 1018.7
20200328015003 60 315 5.0 10.0 0.00 0.00 0.00 36 1018.7
20200328014004 61 349 7.0 11.0 0.00 0.00 0.00 36 1018.4
20200328013505 61 317 7.0 11.0 0.00 0.00 0.00 35 1018.6
20200328013017 61 288 6.0 11.0 0.00 0.00 0.00 34 1018.6
20200328012506 61 333 6.0 11.0 0.00 0.00 0.00 35 1018.5
20200328012002 61 355 7.0 11.0 0.00 0.00 0.00 34 1018.4
20200328011501 61 282 4.0 14.0 0.00 0.00 0.00 37 1018.4
20200328011002 62 324 6.0 14.0 0.00 0.00 0.00 36 1018.5
20200328010507 62 5 2.0 8.0 0.00 0.00 0.00 36 1018.4
20200328010003 62 5 5.0 9.0 0.00 0.00 0.00 35 1018.4
20200328005501 62 328 4.0 10.0 0.00 0.00 0.00 35 1018.3
20200328005001 62 308 7.0 12.0 0.00 0.00 0.00 34 1018.3
20200328004001 62 21 3.0 9.0 0.00 0.00 0.00 35 1018.2
20200328003500 61 329 5.0 11.0 0.00 0.00 0.00 35 1018.2
20200328003005 62 236 6.0 11.0 0.00 0.00 0.00 37 1018.1
20200328002605 61 343 4.0 11.0 0.00 0.00 0.00 36 1018.1
20200328002101 62 309 6.0 13.0 0.00 0.00 0.00 36 1018.1
20200328001639 62 315 5.0 11.0 0.00 0.00 0.00 36 1018.1
20200328001100 62 5 8.0 11.0 0.00 0.00 0.00 35 1018.1
20200328000607 62 305 7.0 14.0 0.00 0.00 0.00 35 1018.0
20200328000208 62 299 7.0 14.0 0.00 0.00 0.00 34 1018.2
20200327235559 63 317 5.0 10.0 0.00 0.00 0.00 34 1018.1
20200327235058 62 251 3.0 8.0 0.00 0.00 0.00 37 1018.1
20200327234707 61 30 5.0 10.0 0.00 0.00 0.00 36 1018.1
20200327233557 61 273 2.0 9.0 0.00 0.00 0.00 37 1018.2
20200327233125 61 311 5.0 11.0 0.00 0.00 0.00 37 1018.4
20200327232608 62 318 6.0 11.0 0.00 0.00 0.00 36 1018.2
20200327232056 61 331 4.0 12.0 0.00 0.00 0.00 38 1018.2
20200327231738 61 22 5.0 15.0 0.00 0.00 0.00 38 1018.4
20200327231058 61 36 7.0 15.0 0.00 0.00 0.00 37 1018.3
20200327230607 61 319 7.0 15.0 0.00 0.00 0.00 36 1018.4
20200327230209 62 342 5.0 12.0 0.00 0.00 0.00 36 1018.4
20200327225553 61 346 5.0 12.0 0.00 0.00 0.00 38 1018.5
20200327225105 61 345 7.0 12.0 0.00 0.00 0.00 39 1018.4
20200327224558 60 20 4.0 13.0 0.00 0.00 0.00 40 1018.5
20200327223600 60 315 6.0 14.0 0.00 0.00 0.00 39 1018.6
20200327222619 60 265 7.0 14.0 0.00 0.00 0.00 40 1018.6
20200327222050 60 285 4.0 14.0 0.00 0.00 0.00 42 1018.5
20200327221730 61 360 6.0 12.0 0.00 0.00 0.00 42 1018.6
20200327221103 60 273 6.0 12.0 0.00 0.00 0.00 40 1018.7
20200327220551 61 298 1.0 12.0 0.00 0.00 0.00 40 1018.7
20200327220148 61 339 5.0 12.0 0.00 0.00 0.00 40 1018.8
20200327215549 61 21 4.0 10.0 0.00 0.00 0.00 40 1018.8
20200327215048 60 247 5.0 9.0 0.00 0.00 0.00 41 1018.8
20200327214733 60 321 6.0 13.0 0.00 0.00 0.00 41 1019.0
20200327213553 60 22 6.0 11.0 0.00 0.00 0.00 42 1019.0
20200327213212 60 257 4.0 10.0 0.00 0.00 0.00 41 1019.1
20200327212547 60 339 6.0 13.0 0.00 0.00 0.00 41 1019.1
20200327212138 59 264 6.0 13.0 0.00 0.00 0.00 43 1019.2
20200327211623 59 338 4.0 11.0 0.00 0.00 0.00 41 1019.2
20200327211056 60 348 7.0 12.0 0.00 0.00 0.00 41 1019.1
20200327210604 59 349 6.0 12.0 0.00 0.00 0.00 43 1019.2
20200327210343 59 350 6.0 12.0 0.00 0.00 0.00 43 1019.3
20200327205545 59 339 6.0 11.0 0.00 0.00 0.00 44 1019.3
20200327205045 59 355 7.0 11.0 0.00 0.00 0.00 43 1019.4
20200327204556 58 34 7.0 11.0 0.00 0.00 0.00 44 1019.6
20200327203544 58 327 6.0 11.0 0.00 0.00 0.00 46 1019.5
20200327202543 58 311 6.0 11.0 0.00 0.00 0.00 44 1019.7
20200327202048 58 355 3.0 10.0 0.00 0.00 0.00 45 1019.7
20200327201808 58 11 6.0 10.0 0.00 0.00 0.00 45 1019.8
20200327201050 58 18 5.0 9.0 0.00 0.00 0.00 47 1019.7
20200327200548 58 235 4.0 10.0 0.00 0.00 0.00 48 1019.8
20200327200055 58 189 4.0 12.0 0.00 0.00 0.00 46 1019.7
20200327195541 58 340 5.0 12.0 0.00 0.00 0.00 46 1019.7
20200327195040 58 281 6.0 10.0 0.00 0.00 0.00 47 1019.8
20200327194606 57 177 1.0 8.0 0.00 0.00 0.00 48 1019.8
20200327193546 56 27 2.0 9.0 0.00 0.00 0.00 48 1020.1
20200327193100 57 263 3.0 9.0 0.00 0.00 0.00 49 1019.9
20200327192543 57 321 4.0 9.0 0.00 0.00 0.00 48 1019.9
20200327192043 57 44 3.0 7.0 0.00 0.00 0.00 48 1020.0
20200327191601 57 30 5.0 8.0 0.00 0.00 0.00 47 1020.0
20200327191044 57 30 5.0 8.0 0.00 0.00 0.00 47 1019.9
20200327190546 58 62 4.0 8.0 0.00 0.00 0.00 48 1020.0
20200327190200 57 26 4.0 7.0 0.00 0.00 0.00 48 1020.0
20200327185557 56 332 1.0 9.0 0.00 0.00 0.00 50 1020.0
20200327185101 55 9 4.0 9.0 0.00 0.00 0.00 51 1019.9
20200327184707 56 282 2.0 9.0 0.00 0.00 0.00 51 1019.9
20200327183606 55 167 2.0 9.0 0.00 0.00 0.00 51 1020.0
20200327183040 55 155 4.0 9.0 0.00 0.00 0.00 51 1020.0
20200327182606 55 207 5.0 9.0 0.00 0.00 0.00 51 1019.9
20200327182045 55 330 2.0 7.0 0.00 0.00 0.00 52 1020.1
20200327181603 56 211 2.0 7.0 0.00 0.00 0.00 50 1020.1